UAL1791 KLAX-KSFO

Flight info

Callsign UAL1791
Flight time 0h 54m
Altitude 32000
Route SUMMR2 STOKD SERFR SERFR4
Aircraft B739/M-SDE2E3FGHIRWXY/LB1

Departure

Time 2026-04-26 18:08
Airport Los Angeles International Airport (KLAX)

Arrival

Time 2026-04-26 19:03
Airport San Francisco International Airport (KSFO)
Time Latitude Longitude Altitude Speed Heading
2026-04-26 17:29 33.94027 -118.39993 120 ft 0 kts 28°
2026-04-26 17:50 33.94018 -118.39999 121 ft 4 kts 25°
2026-04-26 17:50 33.93993 -118.40010 120 ft 4 kts
2026-04-26 17:51 33.93967 -118.40009 121 ft 4 kts 330°
2026-04-26 17:51 33.93956 -118.39994 123 ft 1 kts 280°
2026-04-26 17:51 33.93955 -118.39990 123 ft 0 kts 280°
2026-04-26 17:55 33.93957 -118.40008 122 ft 5 kts 275°
2026-04-26 17:56 33.93956 -118.40061 125 ft 7 kts 266°
2026-04-26 17:56 33.93942 -118.40167 124 ft 6 kts 261°
2026-04-26 17:57 33.93933 -118.40268 125 ft 6 kts 265°
2026-04-26 17:57 33.93929 -118.40318 125 ft 6 kts 264°
2026-04-26 17:57 33.93924 -118.40367 121 ft 6 kts 262°
2026-04-26 17:57 33.93918 -118.40415 125 ft 6 kts 262°
2026-04-26 17:58 33.93901 -118.40572 123 ft 10 kts 263°
2026-04-26 17:59 33.93885 -118.40743 125 ft 13 kts 263°
2026-04-26 17:59 33.93871 -118.40867 125 ft 17 kts 263°
2026-04-26 17:59 33.93856 -118.41016 125 ft 18 kts 263°
2026-04-26 17:59 33.93842 -118.41152 125 ft 15 kts 263°
2026-04-26 18:00 33.93852 -118.41247 122 ft 10 kts 314°
2026-04-26 18:00 33.93917 -118.41270 125 ft 10 kts 352°
2026-04-26 18:00 33.93986 -118.41280 123 ft 11 kts 352°
2026-04-26 18:00 33.94063 -118.41293 123 ft 11 kts 352°
2026-04-26 18:01 33.94136 -118.41305 123 ft 11 kts 352°
2026-04-26 18:01 33.94208 -118.41314 122 ft 10 kts 354°
2026-04-26 18:01 33.94278 -118.41324 122 ft 10 kts 353°
2026-04-26 18:01 33.94345 -118.41334 122 ft 10 kts 352°
2026-04-26 18:02 33.94411 -118.41344 123 ft 9 kts 352°
2026-04-26 18:02 33.94455 -118.41350 123 ft 9 kts 353°
2026-04-26 18:02 33.94539 -118.41362 122 ft 9 kts 354°
2026-04-26 18:02 33.94603 -118.41371 123 ft 9 kts 351°
2026-04-26 18:03 33.94674 -118.41383 122 ft 12 kts 352°
2026-04-26 18:03 33.94761 -118.41389 123 ft 13 kts 11°
2026-04-26 18:03 33.94790 -118.41333 120 ft 8 kts 79°
2026-04-26 18:03 33.94798 -118.41270 124 ft 8 kts 84°
2026-04-26 18:04 33.94804 -118.41207 121 ft 7 kts 84°
2026-04-26 18:04 33.94809 -118.41147 123 ft 7 kts 83°
2026-04-26 18:04 33.94817 -118.41072 124 ft 12 kts 83°
2026-04-26 18:05 33.94846 -118.40795 125 ft 17 kts 83°
2026-04-26 18:05 33.94860 -118.40654 125 ft 17 kts 83°
2026-04-26 18:05 33.94874 -118.40517 125 ft 16 kts 83°
2026-04-26 18:05 33.94887 -118.40385 125 ft 15 kts 83°
2026-04-26 18:06 33.94901 -118.40258 123 ft 15 kts 83°
2026-04-26 18:06 33.94913 -118.40137 124 ft 14 kts 83°
2026-04-26 18:06 33.94925 -118.40022 124 ft 14 kts 83°
2026-04-26 18:06 33.94959 -118.39923 121 ft 13 kts 32°
2026-04-26 18:07 33.95037 -118.39933 123 ft 12 kts 302°
2026-04-26 18:07 33.95022 -118.40152 125 ft 55 kts 263°
2026-04-26 18:07 33.94949 -118.40871 125 ft 115 kts 263°
2026-04-26 18:07 33.94873 -118.41597 124 ft 147 kts 263°
2026-04-26 18:08 33.94673 -118.43383 596 ft 168 kts 261°
2026-04-26 18:08 33.94481 -118.44829 1117 ft 179 kts 261°
2026-04-26 18:08 33.94316 -118.46258 1973 ft 167 kts 266°
2026-04-26 18:08 33.94295 -118.47708 2455 ft 185 kts 269°
2026-04-26 18:09 33.94259 -118.49360 2656 ft 209 kts 269°
2026-04-26 18:09 33.94210 -118.51167 3098 ft 219 kts 268°
2026-04-26 18:09 33.94078 -118.53086 3391 ft 240 kts 266°
2026-04-26 18:09 33.93909 -118.55121 4078 ft 246 kts 265°
2026-04-26 18:10 33.93741 -118.57175 5008 ft 248 kts 266°
2026-04-26 18:10 33.93574 -118.59252 5880 ft 250 kts 265°
2026-04-26 18:10 33.93407 -118.61346 6701 ft 253 kts 265°
2026-04-26 18:10 33.93240 -118.63470 7487 ft 256 kts 265°
2026-04-26 18:11 33.93072 -118.65607 8339 ft 257 kts 265°
2026-04-26 18:11 33.92905 -118.67757 9143 ft 260 kts 266°
2026-04-26 18:11 33.92736 -118.69933 9946 ft 262 kts 266°
2026-04-26 18:11 33.92565 -118.72151 10452 ft 275 kts 266°
2026-04-26 18:12 33.92380 -118.74550 10625 ft 299 kts 266°
2026-04-26 18:12 33.92179 -118.77137 10814 ft 320 kts 266°
2026-04-26 18:12 33.91969 -118.79814 11293 ft 330 kts 266°
2026-04-26 18:12 33.91751 -118.82582 11862 ft 333 kts 266°
2026-04-26 18:13 33.91649 -118.85368 11953 ft 332 kts 272°
2026-04-26 18:13 33.91751 -118.88139 11986 ft 331 kts 274°
2026-04-26 18:13 33.91885 -118.90919 11979 ft 332 kts 274°
2026-04-26 18:13 33.91926 -118.91856 11981 ft 332 kts 274°
2026-04-26 18:14 33.92089 -118.96474 11982 ft 332 kts 273°
2026-04-26 18:14 33.92172 -118.99257 11988 ft 332 kts 273°
2026-04-26 18:14 33.92559 -119.01986 11984 ft 331 kts 290°
2026-04-26 18:14 33.93584 -119.04473 11992 ft 332 kts 300°
2026-04-26 18:15 33.94819 -119.06827 12005 ft 333 kts 301°
2026-04-26 18:15 33.96079 -119.09174 12001 ft 333 kts 301°
2026-04-26 18:15 33.97308 -119.11497 12002 ft 333 kts 301°
2026-04-26 18:15 33.98538 -119.13860 12010 ft 333 kts 300°
2026-04-26 18:16 33.99760 -119.16227 12008 ft 333 kts 300°
2026-04-26 18:16 34.02907 -119.20388 13155 ft 343 kts 322°
2026-04-26 18:16 34.04855 -119.22037 13992 ft 342 kts 322°
2026-04-26 18:17 34.06817 -119.23693 14595 ft 346 kts 322°
2026-04-26 18:17 34.08805 -119.25378 15140 ft 352 kts 322°
2026-04-26 18:17 34.10829 -119.27102 15579 ft 359 kts 322°
2026-04-26 18:17 34.12879 -119.28857 16188 ft 360 kts 322°
2026-04-26 18:18 34.14905 -119.30594 16905 ft 361 kts 322°
2026-04-26 18:18 34.16970 -119.32370 17432 ft 364 kts 322°
2026-04-26 18:18 34.18997 -119.34115 18502 ft 353 kts 322°
2026-04-26 18:18 34.20960 -119.35805 19508 ft 341 kts 322°
2026-04-26 18:19 34.22222 -119.36894 20222 ft 331 kts 322°
2026-04-26 18:19 34.24066 -119.38484 21168 ft 324 kts 322°
2026-04-26 18:19 34.25907 -119.40077 21698 ft 328 kts 322°
2026-04-26 18:19 34.27779 -119.41698 22164 ft 333 kts 321°
2026-04-26 18:20 34.30297 -119.43877 22878 ft 337 kts 321°
2026-04-26 18:20 34.31588 -119.44995 23248 ft 339 kts 321°
2026-04-26 18:20 34.33491 -119.46644 23729 ft 342 kts 321°
2026-04-26 18:20 34.34804 -119.47781 24030 ft 344 kts 321°
2026-04-26 18:21 34.37390 -119.50022 24637 ft 347 kts 321°
2026-04-26 18:21 34.39359 -119.51729 25106 ft 349 kts 321°
2026-04-26 18:21 34.41327 -119.53464 25544 ft 351 kts 317°
2026-04-26 18:21 34.43151 -119.55446 25963 ft 352 kts 313°
2026-04-26 18:22 34.44871 -119.57563 26419 ft 353 kts 311°
2026-04-26 18:22 34.46565 -119.59718 26890 ft 354 kts 310°
2026-04-26 18:22 34.48268 -119.61889 27343 ft 356 kts 310°
2026-04-26 18:22 34.49988 -119.64064 27771 ft 358 kts 310°
2026-04-26 18:23 34.51724 -119.66243 28190 ft 361 kts 311°
2026-04-26 18:23 34.53485 -119.68437 28621 ft 364 kts 311°
2026-04-26 18:23 34.55263 -119.70643 29028 ft 366 kts 311°
2026-04-26 18:23 34.57030 -119.72829 29445 ft 368 kts 311°
2026-04-26 18:24 34.58829 -119.75053 29846 ft 370 kts 311°
2026-04-26 18:24 34.60638 -119.77288 30205 ft 373 kts 311°
2026-04-26 18:24 34.62462 -119.79543 30524 ft 374 kts 310°
2026-04-26 18:24 34.64291 -119.81805 30832 ft 377 kts 310°
2026-04-26 18:25 34.66136 -119.84088 31144 ft 379 kts 310°
2026-04-26 18:25 34.67987 -119.86381 31431 ft 381 kts 310°
2026-04-26 18:25 34.69852 -119.88693 31733 ft 383 kts 310°
2026-04-26 18:25 34.71727 -119.91018 32012 ft 386 kts 310°
2026-04-26 18:26 34.75555 -119.95775 32021 ft 399 kts 310°
2026-04-26 18:26 34.79471 -120.00643 32040 ft 410 kts 310°
2026-04-26 18:27 34.83514 -120.05677 32037 ft 420 kts 310°
2026-04-26 18:27 34.87609 -120.10778 32015 ft 421 kts 310°
2026-04-26 18:28 34.91694 -120.15877 32034 ft 420 kts 311°
2026-04-26 18:28 34.95767 -120.20969 32042 ft 418 kts 311°
2026-04-26 18:29 34.99829 -120.26059 32039 ft 418 kts 311°
2026-04-26 18:29 35.03878 -120.31139 32037 ft 417 kts 311°
2026-04-26 18:30 35.07922 -120.36219 32050 ft 417 kts 311°
2026-04-26 18:30 35.12074 -120.41134 32032 ft 419 kts 314°
2026-04-26 18:31 35.16419 -120.45920 32034 ft 420 kts 315°
2026-04-26 18:31 35.20748 -120.50710 32031 ft 420 kts 314°
2026-04-26 18:32 35.25066 -120.55542 32046 ft 421 kts 314°
2026-04-26 18:32 35.29357 -120.60368 32043 ft 422 kts 314°
2026-04-26 18:33 35.33687 -120.65248 32035 ft 423 kts 314°
2026-04-26 18:33 35.38026 -120.70143 32036 ft 424 kts 315°
2026-04-26 18:34 35.42712 -120.74593 32040 ft 427 kts 322°
2026-04-26 18:34 35.47550 -120.78735 32049 ft 426 kts 322°
2026-04-26 18:35 35.52393 -120.82913 32046 ft 425 kts 321°
2026-04-26 18:35 35.57206 -120.87131 32045 ft 424 kts 321°
2026-04-26 18:36 35.61988 -120.91355 32050 ft 423 kts 321°
2026-04-26 18:36 35.66756 -120.95579 32026 ft 422 kts 321°
2026-04-26 18:37 35.71511 -120.99798 32020 ft 421 kts 321°
2026-04-26 18:37 35.76259 -121.04014 32033 ft 420 kts 321°
2026-04-26 18:38 35.80993 -121.08225 32026 ft 419 kts 321°
2026-04-26 18:38 35.85724 -121.12440 32013 ft 419 kts 321°
2026-04-26 18:39 35.90414 -121.16624 32022 ft 419 kts 321°
2026-04-26 18:39 35.95133 -121.20841 32027 ft 419 kts 321°
2026-04-26 18:40 35.99852 -121.25064 32005 ft 419 kts 321°
2026-04-26 18:40 36.04568 -121.29289 32010 ft 418 kts 321°
2026-04-26 18:41 36.09273 -121.33512 32029 ft 418 kts 321°
2026-04-26 18:41 36.13998 -121.37761 31552 ft 426 kts 321°
2026-04-26 18:42 36.16397 -121.39922 30933 ft 426 kts 321°
2026-04-26 18:42 36.18792 -121.42079 30179 ft 427 kts 322°
2026-04-26 18:42 36.21201 -121.44249 29317 ft 428 kts 322°
2026-04-26 18:42 36.23604 -121.46415 28650 ft 424 kts 322°
2026-04-26 18:43 36.25978 -121.48556 28034 ft 419 kts 322°
2026-04-26 18:43 36.28324 -121.50674 27466 ft 414 kts 321°
2026-04-26 18:43 36.30636 -121.52764 26900 ft 409 kts 322°
2026-04-26 18:43 36.32891 -121.54805 26348 ft 405 kts 321°
2026-04-26 18:44 36.35161 -121.56860 25789 ft 401 kts 321°
2026-04-26 18:44 36.37411 -121.58899 25255 ft 398 kts 321°
2026-04-26 18:44 36.39641 -121.60923 24702 ft 396 kts 321°
2026-04-26 18:44 36.41856 -121.62933 24169 ft 393 kts 321°
2026-04-26 18:45 36.44062 -121.64938 23616 ft 392 kts 321°
2026-04-26 18:45 36.46258 -121.66933 22990 ft 389 kts 321°
2026-04-26 18:45 36.48413 -121.68891 22807 ft 377 kts 321°
2026-04-26 18:45 36.50519 -121.70768 22420 ft 371 kts 323°
2026-04-26 18:46 36.52653 -121.72497 21932 ft 369 kts 325°
2026-04-26 18:46 36.54826 -121.74185 21420 ft 367 kts 325°
2026-04-26 18:46 36.56986 -121.75854 20955 ft 364 kts 325°
2026-04-26 18:46 36.59177 -121.77563 20507 ft 381 kts 325°
2026-04-26 18:47 36.61480 -121.79375 20007 ft 402 kts 325°
2026-04-26 18:47 36.63900 -121.81289 19461 ft 421 kts 325°
2026-04-26 18:47 36.66380 -121.83252 19395 ft 420 kts 325°
2026-04-26 18:47 36.68774 -121.85143 19211 ft 393 kts 325°
2026-04-26 18:48 36.71012 -121.86915 19060 ft 369 kts 324°
2026-04-26 18:48 36.73118 -121.88585 18896 ft 349 kts 325°
2026-04-26 18:48 36.75296 -121.89859 18351 ft 347 kts 341°
2026-04-26 18:48 36.77622 -121.90508 17566 ft 348 kts 344°
2026-04-26 18:49 36.79987 -121.91120 16802 ft 347 kts 345°
2026-04-26 18:49 36.82343 -121.91740 16169 ft 344 kts 345°
2026-04-26 18:49 36.84672 -121.92367 15603 ft 340 kts 344°
2026-04-26 18:49 36.86977 -121.93001 15005 ft 337 kts 344°
2026-04-26 18:50 36.89266 -121.93638 14404 ft 335 kts 345°
2026-04-26 18:50 36.91535 -121.94272 13828 ft 333 kts 345°
2026-04-26 18:50 36.93789 -121.94903 13216 ft 330 kts 345°
2026-04-26 18:50 36.96013 -121.95562 12619 ft 327 kts 342°
2026-04-26 18:51 36.98183 -121.96369 12077 ft 322 kts 340°
2026-04-26 18:51 37.00305 -121.97216 11523 ft 319 kts 340°
2026-04-26 18:51 37.02400 -121.98060 11305 ft 314 kts 340°
2026-04-26 18:51 37.04479 -121.98893 11048 ft 314 kts 340°
2026-04-26 18:52 37.06558 -121.99718 10698 ft 312 kts 340°
2026-04-26 18:52 37.08620 -122.00532 10376 ft 308 kts 340°
2026-04-26 18:52 37.10626 -122.01319 10259 ft 297 kts 340°
2026-04-26 18:52 37.12567 -122.02079 10117 ft 289 kts 340°
2026-04-26 18:53 37.14434 -122.02810 9985 ft 280 kts 340°
2026-04-26 18:53 37.16289 -122.03538 9646 ft 279 kts 340°
2026-04-26 18:53 37.18132 -122.04260 9325 ft 277 kts 340°
2026-04-26 18:53 37.19973 -122.04984 8984 ft 276 kts 340°
2026-04-26 18:54 37.21812 -122.05704 8636 ft 275 kts 340°
2026-04-26 18:54 37.23633 -122.06419 8321 ft 272 kts 340°
2026-04-26 18:54 37.25430 -122.07124 8125 ft 269 kts 340°
2026-04-26 18:54 37.27211 -122.07821 8038 ft 267 kts 340°
2026-04-26 18:55 37.28956 -122.08508 8020 ft 265 kts 339°
2026-04-26 18:55 37.30762 -122.09221 7503 ft 275 kts 340°
2026-04-26 18:55 37.32538 -122.09919 7377 ft 261 kts 340°
2026-04-26 18:55 37.34266 -122.10600 6893 ft 261 kts 340°
2026-04-26 18:56 37.36006 -122.11287 6373 ft 263 kts 339°
2026-04-26 18:56 37.37753 -122.11974 6069 ft 264 kts 340°
2026-04-26 18:56 37.39510 -122.12593 5963 ft 259 kts 342°
2026-04-26 18:56 37.41235 -122.13173 5528 ft 255 kts 341°
2026-04-26 18:57 37.42957 -122.13757 4957 ft 256 kts 342°
2026-04-26 18:57 37.43510 -122.13944 4892 ft 251 kts 341°
2026-04-26 18:57 37.46172 -122.14838 4614 ft 225 kts 342°
2026-04-26 18:57 37.47676 -122.15332 4193 ft 222 kts 341°
2026-04-26 18:58 37.49140 -122.15814 4043 ft 220 kts 342°
2026-04-26 18:58 37.50610 -122.16299 3840 ft 216 kts 341°
2026-04-26 18:58 37.52064 -122.16779 3414 ft 217 kts 341°
2026-04-26 18:58 37.53444 -122.17468 2928 ft 212 kts 318°
2026-04-26 18:59 37.54280 -122.18938 2493 ft 205 kts 295°
2026-04-26 18:59 37.54933 -122.20504 2095 ft 201 kts 296°
2026-04-26 18:59 37.55582 -122.22026 1886 ft 188 kts 296°
2026-04-26 18:59 37.56193 -122.23460 1837 ft 185 kts 296°
2026-04-26 19:00 37.56800 -122.24869 1808 ft 181 kts 297°
2026-04-26 19:00 37.57412 -122.26269 1742 ft 186 kts 296°
2026-04-26 19:00 37.58005 -122.27680 1495 ft 175 kts 296°
2026-04-26 19:00 37.58546 -122.28977 1251 ft 162 kts 296°
2026-04-26 19:01 37.59058 -122.30209 1048 ft 158 kts 296°
2026-04-26 19:01 37.59554 -122.31399 822 ft 149 kts 296°
2026-04-26 19:01 37.60022 -122.32522 630 ft 142 kts 297°
2026-04-26 19:01 37.60485 -122.33632 437 ft 144 kts 297°
2026-04-26 19:02 37.60939 -122.34719 263 ft 136 kts 295°
2026-04-26 19:02 37.61377 -122.35769 69 ft 136 kts 296°
2026-04-26 19:02 37.61799 -122.36790 16 ft 119 kts 298°
2026-04-26 19:02 37.62015 -122.37294 17 ft 79 kts 297°
2026-04-26 19:03 37.62209 -122.37885 21 ft 41 kts 275°
2026-04-26 19:03 37.62228 -122.38205 22 ft 32 kts 263°
2026-04-26 19:03 37.62129 -122.38324 21 ft 15 kts 194°
2026-04-26 19:03 37.62031 -122.38338 23 ft 14 kts 154°
2026-04-26 19:04 37.61984 -122.38244 22 ft 12 kts 117°
2026-04-26 19:04 37.61955 -122.38186 21 ft 2 kts 164°
2026-04-26 19:04 37.61938 -122.38196 21 ft 4 kts 214°
2026-04-26 19:04 37.61911 -122.38230 20 ft 7 kts 224°
2026-04-26 19:05 37.61838 -122.38289 17 ft 6 kts 227°
2026-04-26 19:05 37.61803 -122.38332 14 ft 6 kts 195°
2026-04-26 19:05 37.61796 -122.38324 15 ft 2 kts 124°
2026-04-26 19:06 37.61790 -122.38312 15 ft 2 kts 121°
2026-04-26 19:06 37.61782 -122.38300 15 ft 2 kts 131°
2026-04-26 19:06 37.61775 -122.38290 15 ft 1 kts 133°
2026-04-26 19:06 37.61772 -122.38286 15 ft 1 kts 133°
2026-04-26 19:07 37.61771 -122.38286 15 ft 0 kts 133°